Regional Weather Roundup
Issued by NWS

Home | Current Version | Previous Version | Text Only | Print | Product List | Glossary Off
Versions: 1 2 3 4 5 6 7 8 9 10 11 12 13 14 15 16 17 18 19 20 21 22 23 24 25 26 27 28 29 30 31 32 33 34 35 36 37 38 39 40 41 42 43 44 45 46 47 48 49 50

000
ASUS43 KFSD 230310
RWRSD

WEATHER ROUNDUP FOR SOUTH DAKOTA
NATIONAL WEATHER SERVICE SIOUX FALLS SD
1000 PM CDT TUE JUL 22 2014

NOTE: "FAIR" INDICATES FEW OR NO CLOUDS BELOW 12,000 FEET WITH NO
SIGNIFICANT WEATHER AND/OR OBSTRUCTIONS TO VISIBILITY.


SDZ001>005-009-010-012>017-230400-
NORTHWEST AND NORTH CENTRAL SOUTH DAKOTA

CITY           SKY/WX    TMP DP  RH WIND       PRES   REMARKS
BUFFALO          N/A     66  62  87 E20G26    30.18S
FAITH            N/A     68  63  84 E21       30.26F
MOBRIDGE       MOCLDY    71  64  78 S3        30.26R
$$

SDZ012>016-024>037-041>051-057-063-072>074-230400-
SOUTHWEST AND SOUTH CENTRAL SOUTH DAKOTA

CITY           SKY/WX    TMP DP  RH WIND       PRES   REMARKS
RAPID CTY ARPT CLOUDY    73  62  68 NE6       30.23R
PIERRE         CLOUDY    74  61  63 E3        30.23R
CUSTER         CLOUDY    60  57  89 NE5       30.37R
ELLSWORTH AFB  CLOUDY    72  64  78 SE3       30.24R THUNDER
PHILIP         CLOUDY    77  61  57 E9        30.23R
PINE RIDGE     PTCLDY    76  63  64 NE20G26   30.26R
WINNER         FAIR      74  58  57 E8        30.23R
$$

SDZ004>011-016>023-039-040-230400-
NORTHEAST SOUTH DAKOTA

CITY           SKY/WX    TMP DP  RH WIND       PRES   REMARKS
ABERDEEN       CLEAR     68  61  78 E6        30.23R
WATERTOWN      CLEAR     63  57  81 N6        30.25R
SISSETON         N/A     65  61  87 N3        30.23R
$$

SDZ017-020-022-023-036>040-048>070-230400-
SOUTHEAST SOUTH DAKOTA

CITY           SKY/WX    TMP DP  RH WIND       PRES   REMARKS
SIOUX FALLS    PTCLDY    68  59  73 N6        30.21R
HURON          CLEAR     70  60  70 NE6       30.22R
CHAMBERLAIN    PTCLDY    73  59  63 NE8       30.22R
MITCHELL       CLEAR     72  62  71 E3        30.21R
YANKTON        CLEAR     72  63  73 N7        30.19
$$

ABBREVIATIONS USED IN REMARKS
   TC - TEMPERATURE IN CELSIUS
  WCI - WIND CHILL INDEX
   HX - HEAT INDEX
  VSB - VISIBILITY



USA.gov is the U.S. government's official web portal to all federal, state and local government web resources and services.